When you browse on this site, cookies collect data to enhance your experience and personalize the content and advertising you see.
Visit our Privacy Policy to learn more. By continuing to use the site, you agree to this use of cookies and data.
  • In Austria
  • List of Countries
  • For 7 days
  • Water Temperature
  • Weather Map
  • News
  • Weather Widgets
  • user-avatar
    Login

    Hourly Weather Uige

    Today, 29 May, Friday

    Time Temperature Precipitation Wind Pressure Humidity
    00:00 +23°C° 0.1 mm 1 mps 691 mmHg 90%
    01:00 +23°C° 0.1 mm 1 mps 691 mmHg 91%
    02:00 +22°C° 0 mm 1 mps 691 mmHg 91%
    03:00 +22°C° 0 mm 1 mps 691 mmHg 91%
    04:00 +22°C° 0 mm 1 mps 690 mmHg 92%
    05:00 +22°C° 0 mm 1 mps 691 mmHg 91%
    06:00 +22°C° 0 mm 1 mps 691 mmHg 91%
    07:00 +22°C° 0 mm 1 mps 692 mmHg 91%
    08:00 +25°C° 0 mm 1 mps 692 mmHg 79%
    09:00 +27°C° 0 mm 1 mps 693 mmHg 67%
    10:00 +30°C° 0 mm 2 mps 693 mmHg 55%
    11:00 +31°C° 0 mm 1 mps 693 mmHg 50%
    12:00 +33°C° 0 mm 1 mps 692 mmHg 45%
    13:00 +34°C° 0 mm 1 mps 692 mmHg 39%
    14:00 +33°C° 0 mm 1 mps 691 mmHg 43%
    15:00 +32°C° 0 mm 1 mps 691 mmHg 47%
    16:00 +32°C° 0 mm 1 mps 690 mmHg 51%
    17:00 +30°C° 0.3 mm 1 mps 690 mmHg 59%
    18:00 +28°C° 0.3 mm 1 mps 690 mmHg 67%
    19:00 +26°C° 0.3 mm 1 mps 690 mmHg 75%
    20:00 +25°C° 0.2 mm 1 mps 691 mmHg 80%
    21:00 +22°C° 0.2 mm 0 mps 691 mmHg 85%
    22:00 +21°C° 0.2 mm 0 mps 691 mmHg 89%
    23:00 +21°C° 0 mm 0 mps 691 mmHg 90%

    Tomorrow, 30 May, Saturday

    Time Temperature Precipitation Wind Pressure Humidity
    00:00 +20°C° 0 mm 0 mps 691 mmHg 91%
    01:00 +20°C° 0 mm 0 mps 690 mmHg 91%
    02:00 +20°C° 0 mm 0 mps 690 mmHg 92%
    03:00 +19°C° 0 mm 0 mps 690 mmHg 93%
    04:00 +21°C° 0 mm 1 mps 690 mmHg 94%
    05:00 +21°C° 0 mm 1 mps 691 mmHg 91%
    06:00 +22°C° 0 mm 1 mps 691 mmHg 89%
    07:00 +22°C° 0 mm 1 mps 691 mmHg 87%
    08:00 +25°C° 0 mm 1 mps 692 mmHg 73%
    09:00 +28°C° 0 mm 1 mps 693 mmHg 59%
    10:00 +31°C° 0 mm 1 mps 693 mmHg 46%
    11:00 +32°C° 0 mm 1 mps 693 mmHg 41%
    12:00 +33°C° 0 mm 1 mps 692 mmHg 35%
    13:00 +35°C° 0 mm 1 mps 692 mmHg 30%
    14:00 +34°C° 0 mm 1 mps 692 mmHg 33%
    15:00 +34°C° 0 mm 1 mps 691 mmHg 35%
    16:00 +33°C° 0 mm 1 mps 690 mmHg 38%
    17:00 +30°C° 0 mm 1 mps 691 mmHg 47%
    18:00 +26°C° 0 mm 0 mps 691 mmHg 57%
    19:00 +23°C° 0 mm 0 mps 691 mmHg 66%
    20:00 +22°C° 0 mm 0 mps 691 mmHg 68%
    21:00 +22°C° 0 mm 0 mps 691 mmHg 71%
    22:00 +21°C° 0 mm 0 mps 692 mmHg 73%
    23:00 +21°C° 0 mm 0 mps 692 mmHg 75%

    Day after tomorrow, 31 May, Sunday

    Time Temperature Precipitation Wind Pressure Humidity
    00:00 +20°C° 0 mm 0 mps 691 mmHg 78%
    01:00 +20°C° 0 mm 0 mps 691 mmHg 80%
    02:00 +19°C° 0 mm 0 mps 691 mmHg 83%
    03:00 +19°C° 0 mm 0 mps 691 mmHg 85%
    04:00 +21°C° 0 mm 1 mps 690 mmHg 88%
    05:00 +21°C° 0 mm 1 mps 691 mmHg 86%
    06:00 +22°C° 0 mm 1 mps 692 mmHg 84%
    07:00 +22°C° 0 mm 1 mps 692 mmHg 82%
    08:00 +25°C° 0 mm 1 mps 693 mmHg 68%
    09:00 +27°C° 0 mm 1 mps 693 mmHg 54%
    10:00 +30°C° 0 mm 2 mps 694 mmHg 39%
    11:00 +32°C° 0 mm 2 mps 693 mmHg 36%
    12:00 +34°C° 0 mm 2 mps 693 mmHg 33%
    13:00 +35°C° 0 mm 1 mps 693 mmHg 31%
    14:00 +34°C° 0 mm 1 mps 692 mmHg 33%
    15:00 +34°C° 0 mm 1 mps 691 mmHg 35%
    16:00 +34°C° 0 mm 1 mps 691 mmHg 37%
    17:00 +31°C° 0 mm 1 mps 691 mmHg 43%
    18:00 +29°C° 0 mm 1 mps 691 mmHg 50%
    19:00 +27°C° 0 mm 1 mps 692 mmHg 56%
    20:00 +26°C° 0 mm 1 mps 692 mmHg 60%
    21:00 +23°C° 0 mm 0 mps 692 mmHg 63%
    22:00 +22°C° 0 mm 0 mps 692 mmHg 67%
    23:00 +22°C° 0 mm 0 mps 692 mmHg 69%

    1 June, Monday

    Time Temperature Precipitation Wind Pressure Humidity
    00:00 +21°C° 0 mm 0 mps 692 mmHg 71%
    01:00 +21°C° 0 mm 0 mps 692 mmHg 73%
    02:00 +20°C° 0 mm 0 mps 692 mmHg 75%
    03:00 +20°C° 0 mm 0 mps 691 mmHg 77%
    04:00 +20°C° 0 mm 0 mps 691 mmHg 79%
    05:00 +20°C° 0 mm 0 mps 691 mmHg 78%
    06:00 +20°C° 0 mm 0 mps 692 mmHg 77%
    07:00 +20°C° 0 mm 0 mps 692 mmHg 76%
    08:00 +23°C° 0 mm 0 mps 693 mmHg 65%
    09:00 +28°C° 0 mm 1 mps 693 mmHg 55%
    10:00 +31°C° 0 mm 1 mps 694 mmHg 44%
    11:00 +32°C° 0 mm 1 mps 693 mmHg 41%
    12:00 +33°C° 0 mm 1 mps 693 mmHg 38%
    13:00 +35°C° 0 mm 2 mps 692 mmHg 34%
    14:00 +33°C° 0 mm 1 mps 692 mmHg 38%
    15:00 +32°C° 0 mm 1 mps 691 mmHg 42%
    16:00 +31°C° 0 mm 1 mps 691 mmHg 46%
    17:00 +30°C° 0 mm 1 mps 691 mmHg 51%
    18:00 +28°C° 0 mm 1 mps 691 mmHg 57%
    19:00 +26°C° 0 mm 1 mps 692 mmHg 62%
    20:00 +26°C° 0 mm 1 mps 692 mmHg 65%
    21:00 +23°C° 0 mm 0 mps 692 mmHg 69%
    22:00 +22°C° 0 mm 0 mps 692 mmHg 72%
    23:00 +21°C° 0 mm 0 mps 692 mmHg 75%

    2 June, Tuesday

    Time Temperature Precipitation Wind Pressure Humidity
    00:00 +20°C° 0 mm 0 mps 692 mmHg 79%
    01:00 +20°C° 0 mm 0 mps 692 mmHg 82%
    02:00 +20°C° 0 mm 0 mps 692 mmHg 86%
    03:00 +21°C° 0 mm 1 mps 691 mmHg 90%
    04:00 +21°C° 0 mm 1 mps 691 mmHg 94%
    05:00 +21°C° 0 mm 1 mps 691 mmHg 93%
    06:00 +22°C° 0 mm 1 mps 692 mmHg 93%
    07:00 +22°C° 0 mm 1 mps 692 mmHg 92%
    08:00 +25°C° 0 mm 1 mps 693 mmHg 77%
    09:00 +28°C° 0 mm 1 mps 693 mmHg 63%
    10:00 +31°C° 0 mm 1 mps 694 mmHg 48%
    11:00 +32°C° 0 mm 1 mps 693 mmHg 43%
    12:00 +33°C° 0 mm 1 mps 693 mmHg 37%
    13:00 +35°C° 0 mm 1 mps 692 mmHg 31%
    14:00 +33°C° 0 mm 1 mps 691 mmHg 36%
    15:00 +32°C° 0 mm 1 mps 691 mmHg 41%
    16:00 +30°C° 0 mm 1 mps 690 mmHg 46%
    17:00 +29°C° 0.2 mm 1 mps 690 mmHg 53%
    18:00 +26°C° 0.2 mm 0 mps 691 mmHg 59%
    19:00 +24°C° 0.2 mm 0 mps 691 mmHg 66%
    20:00 +23°C° 0.2 mm 0 mps 691 mmHg 72%
    21:00 +22°C° 0.2 mm 0 mps 691 mmHg 78%
    22:00 +22°C° 0.2 mm 0 mps 691 mmHg 84%
    23:00 +21°C° 0.1 mm 0 mps 691 mmHg 88%

    3 June, Wednesday

    Time Temperature Precipitation Wind Pressure Humidity
    00:00 +20°C° 0.1 mm 0 mps 691 mmHg 91%
    01:00 +20°C° 0.1 mm 0 mps 691 mmHg 94%
    02:00 +19°C° 0 mm 0 mps 690 mmHg 95%
    03:00 +19°C° 0 mm 0 mps 690 mmHg 96%
    04:00 +19°C° 0 mm 0 mps 690 mmHg 97%
    05:00 +19°C° 0 mm 0 mps 690 mmHg 95%
    06:00 +20°C° 0 mm 0 mps 691 mmHg 93%
    07:00 +20°C° 0 mm 0 mps 691 mmHg 91%
    08:00 +25°C° 0 mm 1 mps 692 mmHg 78%
    09:00 +28°C° 0 mm 1 mps 693 mmHg 66%
    10:00 +30°C° 0 mm 1 mps 693 mmHg 54%
    11:00 +32°C° 0 mm 1 mps 693 mmHg 48%
    12:00 +33°C° 0 mm 1 mps 692 mmHg 43%
    13:00 +34°C° 0 mm 1 mps 691 mmHg 37%
    14:00 +33°C° 0 mm 1 mps 691 mmHg 42%
    15:00 +32°C° 0 mm 1 mps 690 mmHg 47%
    16:00 +31°C° 0 mm 1 mps 690 mmHg 51%
    17:00 +28°C° 1 mm 1 mps 690 mmHg 63%
    18:00 +26°C° 1 mm 1 mps 690 mmHg 74%
    19:00 +24°C° 1 mm 1 mps 690 mmHg 86%
    20:00 +22°C° 0.3 mm 0 mps 691 mmHg 88%
    21:00 +21°C° 0.3 mm 0 mps 691 mmHg 89%
    22:00 +21°C° 0.3 mm 0 mps 692 mmHg 91%
    23:00 +20°C° 0 mm 0 mps 691 mmHg 92%
    Show more